When you browse on this site, cookies collect data to enhance your experience and personalize the content and advertising you see.
Visit our Privacy Policy to learn more. By continuing to use the site, you agree to this use of cookies and data.
  • In Netherlands
  • List of Countries
  • For 7 days
  • Water Temperature
  • Satellite Maps
  • Weather Map
  • Weather Widgets
  • user-avatar
    Login

    Hourly Weather Kanye

    Today, 21 May, Tuesday

    Time Temperature Precipitation Wind Pressure Humidity
    00:00 +16°C° 0 mm 1 mps 652 mmHg 36%
    01:00 +16°C° 0 mm 2 mps 652 mmHg 36%
    02:00 +15°C° 0 mm 2 mps 652 mmHg 36%
    03:00 +15°C° 0 mm 1 mps 652 mmHg 36%
    04:00 +14°C° 0 mm 1 mps 652 mmHg 37%
    05:00 +14°C° 0 mm 1 mps 652 mmHg 37%
    06:00 +14°C° 0 mm 1 mps 652 mmHg 37%
    07:00 +15°C° 0 mm 1 mps 653 mmHg 37%
    08:00 +18°C° 0 mm 1 mps 654 mmHg 31%
    09:00 +19°C° 0 mm 2 mps 654 mmHg 27%
    10:00 +21°C° 0 mm 2 mps 655 mmHg 24%
    11:00 +24°C° 0 mm 2 mps 655 mmHg 21%
    12:00 +25°C° 0 mm 2 mps 655 mmHg 20%
    13:00 +26°C° 0 mm 2 mps 655 mmHg 19%
    14:00 +27°C° 0 mm 2 mps 655 mmHg 18%
    15:00 +27°C° 0 mm 2 mps 654 mmHg 19%
    16:00 +26°C° 0 mm 1 mps 654 mmHg 21%
    17:00 +25°C° 0 mm 1 mps 654 mmHg 23%
    18:00 +23°C° 0 mm 1 mps 653 mmHg 25%
    19:00 +21°C° 0 mm 1 mps 653 mmHg 27%
    20:00 +19°C° 0 mm 1 mps 653 mmHg 29%
    21:00 +19°C° 0 mm 1 mps 653 mmHg 30%
    22:00 +18°C° 0 mm 1 mps 653 mmHg 31%
    23:00 +18°C° 0 mm 1 mps 653 mmHg 33%

    Tomorrow, 22 May, Wednesday

    Time Temperature Precipitation Wind Pressure Humidity
    00:00 +16°C° 0 mm 1 mps 653 mmHg 33%
    01:00 +16°C° 0 mm 1 mps 653 mmHg 34%
    02:00 +16°C° 0 mm 1 mps 653 mmHg 35%
    03:00 +15°C° 0 mm 1 mps 653 mmHg 35%
    04:00 +15°C° 0 mm 1 mps 653 mmHg 35%
    05:00 +15°C° 0 mm 2 mps 653 mmHg 36%
    06:00 +15°C° 0 mm 2 mps 653 mmHg 36%
    07:00 +16°C° 0 mm 2 mps 654 mmHg 36%
    08:00 +16°C° 0 mm 2 mps 655 mmHg 37%
    09:00 +18°C° 0 mm 3 mps 655 mmHg 33%
    10:00 +20°C° 0 mm 4 mps 656 mmHg 29%
    11:00 +22°C° 0 mm 5 mps 657 mmHg 25%
    12:00 +23°C° 0 mm 5 mps 656 mmHg 24%
    13:00 +25°C° 0 mm 4 mps 656 mmHg 23%
    14:00 +26°C° 0 mm 4 mps 655 mmHg 22%
    15:00 +26°C° 0 mm 4 mps 655 mmHg 24%
    16:00 +25°C° 0 mm 3 mps 655 mmHg 25%
    17:00 +25°C° 0 mm 2 mps 654 mmHg 27%
    18:00 +23°C° 0 mm 2 mps 654 mmHg 30%
    19:00 +20°C° 0 mm 2 mps 654 mmHg 34%
    20:00 +18°C° 0 mm 2 mps 654 mmHg 37%
    21:00 +18°C° 0 mm 2 mps 654 mmHg 39%
    22:00 +17°C° 0 mm 2 mps 654 mmHg 41%
    23:00 +17°C° 0 mm 2 mps 654 mmHg 43%

    Day after tomorrow, 23 May, Thursday

    Time Temperature Precipitation Wind Pressure Humidity
    00:00 +16°C° 0 mm 2 mps 654 mmHg 47%
    01:00 +16°C° 0 mm 2 mps 654 mmHg 51%
    02:00 +15°C° 0 mm 2 mps 654 mmHg 55%
    03:00 +15°C° 0 mm 2 mps 654 mmHg 58%
    04:00 +14°C° 0 mm 2 mps 654 mmHg 61%
    05:00 +14°C° 0 mm 2 mps 653 mmHg 64%
    06:00 +14°C° 0 mm 2 mps 654 mmHg 63%
    07:00 +15°C° 0 mm 2 mps 654 mmHg 63%
    08:00 +15°C° 0 mm 2 mps 655 mmHg 62%
    09:00 +18°C° 0 mm 3 mps 655 mmHg 55%
    10:00 +20°C° 0 mm 3 mps 656 mmHg 47%
    11:00 +23°C° 0 mm 4 mps 657 mmHg 40%
    12:00 +25°C° 0 mm 4 mps 656 mmHg 35%
    13:00 +25°C° 0 mm 4 mps 656 mmHg 30%
    14:00 +26°C° 0 mm 4 mps 655 mmHg 25%
    15:00 +26°C° 0 mm 3 mps 655 mmHg 26%
    16:00 +25°C° 0 mm 3 mps 655 mmHg 27%
    17:00 +25°C° 0 mm 2 mps 654 mmHg 28%
    18:00 +23°C° 0 mm 2 mps 654 mmHg 31%
    19:00 +21°C° 0 mm 1 mps 654 mmHg 34%
    20:00 +19°C° 0 mm 1 mps 654 mmHg 37%
    21:00 +19°C° 0 mm 1 mps 654 mmHg 39%
    22:00 +18°C° 0 mm 1 mps 655 mmHg 41%
    23:00 +15°C° 0 mm 0 mps 655 mmHg 42%

    24 May, Friday

    Time Temperature Precipitation Wind Pressure Humidity
    00:00 +16°C° 0 mm 1 mps 655 mmHg 43%
    01:00 +16°C° 0 mm 1 mps 654 mmHg 44%
    02:00 +15°C° 0 mm 1 mps 654 mmHg 45%
    03:00 +16°C° 0 mm 1 mps 654 mmHg 45%
    04:00 +16°C° 0 mm 1 mps 655 mmHg 45%
    05:00 +16°C° 0 mm 2 mps 655 mmHg 46%
    06:00 +17°C° 0 mm 2 mps 655 mmHg 46%
    07:00 +17°C° 0 mm 2 mps 656 mmHg 45%
    08:00 +17°C° 0 mm 2 mps 657 mmHg 45%
    09:00 +19°C° 0 mm 2 mps 657 mmHg 42%
    10:00 +21°C° 0 mm 3 mps 658 mmHg 38%
    11:00 +24°C° 0 mm 3 mps 658 mmHg 35%
    12:00 +25°C° 0 mm 3 mps 658 mmHg 33%
    13:00 +25°C° 0 mm 2 mps 657 mmHg 30%
    14:00 +26°C° 0 mm 2 mps 657 mmHg 28%
    15:00 +26°C° 0 mm 2 mps 657 mmHg 28%
    16:00 +25°C° 0 mm 2 mps 656 mmHg 29%
    17:00 +25°C° 0 mm 1 mps 656 mmHg 29%
    18:00 +23°C° 0 mm 1 mps 656 mmHg 32%
    19:00 +21°C° 0 mm 1 mps 656 mmHg 36%
    20:00 +20°C° 0 mm 1 mps 656 mmHg 39%
    21:00 +18°C° 0 mm 2 mps 656 mmHg 41%
    22:00 +18°C° 0 mm 2 mps 656 mmHg 43%
    23:00 +17°C° 0 mm 3 mps 656 mmHg 45%

    25 May, Saturday

    Time Temperature Precipitation Wind Pressure Humidity
    00:00 +16°C° 0 mm 2 mps 656 mmHg 56%
    01:00 +15°C° 0 mm 2 mps 655 mmHg 68%
    02:00 +14°C° 0 mm 1 mps 655 mmHg 80%
    03:00 +14°C° 0 mm 1 mps 655 mmHg 82%
    04:00 +13°C° 0 mm 1 mps 655 mmHg 84%
    05:00 +13°C° 0 mm 1 mps 655 mmHg 86%
    06:00 +13°C° 0 mm 1 mps 656 mmHg 83%
    07:00 +14°C° 0 mm 2 mps 656 mmHg 80%
    08:00 +14°C° 0 mm 2 mps 657 mmHg 77%
    09:00 +17°C° 0 mm 2 mps 657 mmHg 67%
    10:00 +19°C° 0 mm 2 mps 658 mmHg 58%
    11:00 +21°C° 0 mm 2 mps 658 mmHg 48%
    12:00 +23°C° 0 mm 2 mps 658 mmHg 43%
    13:00 +24°C° 0 mm 2 mps 657 mmHg 38%
    14:00 +25°C° 0 mm 2 mps 657 mmHg 34%
    15:00 +24°C° 0 mm 2 mps 656 mmHg 34%
    16:00 +24°C° 0 mm 2 mps 656 mmHg 34%
    17:00 +23°C° 0 mm 2 mps 656 mmHg 35%
    18:00 +21°C° 0 mm 2 mps 656 mmHg 39%
    19:00 +19°C° 0 mm 2 mps 656 mmHg 44%
    20:00 +18°C° 0 mm 2 mps 656 mmHg 48%
    21:00 +17°C° 0 mm 2 mps 655 mmHg 49%
    22:00 +17°C° 0 mm 2 mps 655 mmHg 51%
    23:00 +16°C° 0 mm 2 mps 655 mmHg 52%

    26 May, Sunday

    Time Temperature Precipitation Wind Pressure Humidity
    00:00 +16°C° 0 mm 1 mps 655 mmHg 53%
    01:00 +15°C° 0 mm 1 mps 655 mmHg 54%
    02:00 +14°C° 0 mm 1 mps 654 mmHg 55%
    03:00 +14°C° 0 mm 1 mps 654 mmHg 56%
    04:00 +13°C° 0 mm 0 mps 654 mmHg 58%
    05:00 +12°C° 0 mm 0 mps 654 mmHg 60%
    06:00 +13°C° 0 mm 0 mps 654 mmHg 57%
    07:00 +15°C° 0 mm 1 mps 655 mmHg 55%
    08:00 +16°C° 0 mm 1 mps 656 mmHg 53%
    09:00 +19°C° 0 mm 1 mps 656 mmHg 47%
    10:00 +19°C° 0 mm 2 mps 657 mmHg 42%
    11:00 +21°C° 0 mm 2 mps 657 mmHg 36%
    12:00 +23°C° 0 mm 2 mps 657 mmHg 33%
    13:00 +24°C° 0 mm 1 mps 656 mmHg 31%
    14:00 +25°C° 0 mm 1 mps 656 mmHg 28%
    15:00 +24°C° 0 mm 1 mps 655 mmHg 29%
    16:00 +24°C° 0 mm 1 mps 655 mmHg 30%
    17:00 +23°C° 0 mm 1 mps 655 mmHg 31%
    18:00 +22°C° 0 mm 1 mps 655 mmHg 33%
    19:00 +20°C° 0 mm 1 mps 655 mmHg 35%
    20:00 +19°C° 0 mm 1 mps 654 mmHg 38%
    21:00 +18°C° 0 mm 1 mps 654 mmHg 40%
    22:00 +18°C° 0 mm 1 mps 654 mmHg 42%
    23:00 +16°C° 0 mm 1 mps 654 mmHg 44%
    Show more